When you browse on this site, cookies collect data to enhance your experience and personalize the content and advertising you see.
Visit our Privacy Policy to learn more. By continuing to use the site, you agree to this use of cookies and data.
  • In Switzerland
  • List of Countries
  • For 7 days
  • Water Temperature
  • Satellite Maps
  • Weather Map
  • Weather Widgets
  • user-avatar
    Login

    Hourly Weather Beijing

    Today, 20 March, Wednesday

    Time Temperature Precipitation Wind Pressure Humidity
    00:00 +20°C° 0 mm 2 mps 750 mmHg 31%
    01:00 +19°C° 0 mm 2 mps 749 mmHg 34%
    02:00 +18°C° 0 mm 2 mps 749 mmHg 37%
    03:00 +18°C° 0 mm 2 mps 748 mmHg 39%
    04:00 +17°C° 0 mm 2 mps 748 mmHg 42%
    05:00 +17°C° 0 mm 2 mps 748 mmHg 44%
    06:00 +17°C° 0 mm 2 mps 748 mmHg 45%
    07:00 +17°C° 0 mm 2 mps 748 mmHg 47%
    08:00 +18°C° 0 mm 1 mps 748 mmHg 48%
    09:00 +19°C° 0 mm 1 mps 748 mmHg 45%
    10:00 +19°C° 0 mm 2 mps 747 mmHg 43%
    11:00 +21°C° 0 mm 2 mps 747 mmHg 41%
    12:00 +21°C° 0 mm 2 mps 747 mmHg 39%
    13:00 +21°C° 0 mm 2 mps 746 mmHg 38%
    14:00 +23°C° 0 mm 2 mps 746 mmHg 37%
    15:00 +21°C° 0.6 mm 2 mps 746 mmHg 41%
    16:00 +20°C° 0.6 mm 2 mps 747 mmHg 45%
    17:00 +20°C° 0.6 mm 1 mps 747 mmHg 50%
    18:00 +19°C° 0.6 mm 2 mps 748 mmHg 49%
    19:00 +18°C° 0.6 mm 2 mps 748 mmHg 47%
    20:00 +17°C° 0.6 mm 2 mps 749 mmHg 46%
    21:00 +15°C° 0 mm 4 mps 750 mmHg 40%
    22:00 +14°C° 0 mm 5 mps 751 mmHg 35%
    23:00 +12°C° 0 mm 7 mps 752 mmHg 29%

    Tomorrow, 21 March, Thursday

    Time Temperature Precipitation Wind Pressure Humidity
    00:00 +11°C° 0 mm 7 mps 753 mmHg 28%
    01:00 +10°C° 0 mm 7 mps 754 mmHg 28%
    02:00 +9°C° 0 mm 7 mps 755 mmHg 27%
    03:00 +8°C° 0 mm 7 mps 756 mmHg 27%
    04:00 +6°C° 0 mm 7 mps 757 mmHg 26%
    05:00 +5°C° 0 mm 7 mps 758 mmHg 25%
    06:00 +5°C° 0 mm 7 mps 759 mmHg 23%
    07:00 +5°C° 0 mm 7 mps 760 mmHg 20%
    08:00 +4°C° 0 mm 7 mps 761 mmHg 18%
    09:00 +5°C° 0 mm 7 mps 761 mmHg 16%
    10:00 +8°C° 0 mm 6 mps 762 mmHg 14%
    11:00 +9°C° 0 mm 6 mps 762 mmHg 13%
    12:00 +9°C° 0 mm 5 mps 762 mmHg 12%
    13:00 +11°C° 0 mm 4 mps 762 mmHg 11%
    14:00 +12°C° 0 mm 4 mps 761 mmHg 10%
    15:00 +12°C° 0 mm 3 mps 761 mmHg 10%
    16:00 +13°C° 0 mm 3 mps 761 mmHg 10%
    17:00 +14°C° 0 mm 2 mps 761 mmHg 10%
    18:00 +13°C° 0 mm 2 mps 762 mmHg 11%
    19:00 +12°C° 0 mm 2 mps 762 mmHg 12%
    20:00 +11°C° 0 mm 1 mps 763 mmHg 13%
    21:00 +11°C° 0 mm 1 mps 763 mmHg 14%
    22:00 +10°C° 0 mm 1 mps 764 mmHg 15%
    23:00 +10°C° 0 mm 1 mps 764 mmHg 17%

    Day after tomorrow, 22 March, Friday

    Time Temperature Precipitation Wind Pressure Humidity
    00:00 +9°C° 0 mm 1 mps 764 mmHg 17%
    01:00 +9°C° 0 mm 1 mps 765 mmHg 18%
    02:00 +8°C° 0 mm 1 mps 765 mmHg 18%
    03:00 +8°C° 0 mm 1 mps 764 mmHg 19%
    04:00 +8°C° 0 mm 1 mps 764 mmHg 20%
    05:00 +7°C° 0 mm 1 mps 764 mmHg 21%
    06:00 +7°C° 0 mm 2 mps 764 mmHg 22%
    07:00 +7°C° 0 mm 2 mps 765 mmHg 22%
    08:00 +7°C° 0 mm 3 mps 765 mmHg 22%
    09:00 +7°C° 0 mm 4 mps 765 mmHg 20%
    10:00 +10°C° 0 mm 4 mps 765 mmHg 17%
    11:00 +10°C° 0 mm 5 mps 764 mmHg 15%
    12:00 +10°C° 0 mm 5 mps 764 mmHg 13%
    13:00 +12°C° 0 mm 5 mps 763 mmHg 12%
    14:00 +13°C° 0 mm 5 mps 762 mmHg 10%
    15:00 +13°C° 0 mm 6 mps 761 mmHg 10%
    16:00 +13°C° 0 mm 6 mps 761 mmHg 11%
    17:00 +14°C° 0 mm 6 mps 760 mmHg 11%
    18:00 +13°C° 0 mm 6 mps 761 mmHg 13%
    19:00 +11°C° 0 mm 6 mps 762 mmHg 14%
    20:00 +10°C° 0 mm 6 mps 763 mmHg 16%
    21:00 +9°C° 0 mm 6 mps 764 mmHg 16%
    22:00 +7°C° 0 mm 6 mps 765 mmHg 16%
    23:00 +6°C° 0 mm 5 mps 766 mmHg 16%

    23 March, Saturday

    Time Temperature Precipitation Wind Pressure Humidity
    00:00 +6°C° 0 mm 5 mps 766 mmHg 16%
    01:00 +5°C° 0 mm 4 mps 767 mmHg 16%
    02:00 +5°C° 0 mm 4 mps 767 mmHg 16%
    03:00 +4°C° 0 mm 4 mps 767 mmHg 16%
    04:00 +4°C° 0 mm 3 mps 768 mmHg 16%
    05:00 +4°C° 0 mm 3 mps 768 mmHg 17%
    06:00 +4°C° 0 mm 3 mps 768 mmHg 16%
    07:00 +4°C° 0 mm 3 mps 768 mmHg 16%
    08:00 +5°C° 0 mm 3 mps 769 mmHg 15%
    09:00 +7°C° 0 mm 3 mps 768 mmHg 14%
    10:00 +8°C° 0 mm 2 mps 768 mmHg 12%
    11:00 +9°C° 0 mm 2 mps 767 mmHg 10%
    12:00 +10°C° 0 mm 2 mps 766 mmHg 10%
    13:00 +12°C° 0 mm 3 mps 765 mmHg 9%
    14:00 +13°C° 0 mm 3 mps 764 mmHg 8%
    15:00 +13°C° 0 mm 3 mps 763 mmHg 8%
    16:00 +13°C° 0 mm 3 mps 762 mmHg 9%
    17:00 +13°C° 0 mm 4 mps 761 mmHg 9%
    18:00 +13°C° 0 mm 4 mps 761 mmHg 10%
    19:00 +12°C° 0 mm 4 mps 761 mmHg 12%
    20:00 +11°C° 0 mm 4 mps 761 mmHg 13%
    21:00 +11°C° 0 mm 4 mps 761 mmHg 15%
    22:00 +10°C° 0 mm 4 mps 761 mmHg 16%
    23:00 +10°C° 0 mm 4 mps 761 mmHg 17%

    24 March, Sunday

    Time Temperature Precipitation Wind Pressure Humidity
    00:00 +9°C° 0 mm 3 mps 761 mmHg 18%
    01:00 +9°C° 0 mm 3 mps 761 mmHg 19%
    02:00 +8°C° 0 mm 3 mps 760 mmHg 21%
    03:00 +8°C° 0 mm 2 mps 760 mmHg 22%
    04:00 +7°C° 0 mm 2 mps 759 mmHg 23%
    05:00 +8°C° 0 mm 1 mps 759 mmHg 23%
    06:00 +8°C° 0 mm 1 mps 759 mmHg 23%
    07:00 +9°C° 0 mm 1 mps 758 mmHg 22%
    08:00 +9°C° 0 mm 1 mps 758 mmHg 22%
    09:00 +12°C° 0 mm 1 mps 758 mmHg 19%
    10:00 +14°C° 0 mm 1 mps 757 mmHg 16%
    11:00 +16°C° 0 mm 1 mps 757 mmHg 13%
    12:00 +18°C° 0 mm 2 mps 756 mmHg 11%
    13:00 +19°C° 0 mm 2 mps 755 mmHg 9%
    14:00 +20°C° 0 mm 2 mps 754 mmHg 8%
    15:00 +21°C° 0 mm 2 mps 753 mmHg 7%
    16:00 +21°C° 0 mm 2 mps 753 mmHg 7%
    17:00 +21°C° 0 mm 2 mps 753 mmHg 6%
    18:00 +21°C° 0 mm 1 mps 753 mmHg 8%
    19:00 +19°C° 0 mm 1 mps 754 mmHg 9%
    20:00 +16°C° 0 mm 0 mps 754 mmHg 10%
    21:00 +16°C° 0 mm 1 mps 754 mmHg 11%
    22:00 +15°C° 0 mm 1 mps 754 mmHg 11%
    23:00 +15°C° 0 mm 1 mps 755 mmHg 12%

    25 March, Monday

    Time Temperature Precipitation Wind Pressure Humidity
    00:00 +14°C° 0 mm 1 mps 755 mmHg 13%
    01:00 +13°C° 0 mm 2 mps 755 mmHg 13%
    02:00 +13°C° 0 mm 2 mps 755 mmHg 14%
    03:00 +12°C° 0 mm 2 mps 755 mmHg 15%
    04:00 +12°C° 0 mm 2 mps 755 mmHg 16%
    05:00 +10°C° 0 mm 2 mps 755 mmHg 17%
    06:00 +12°C° 0 mm 2 mps 755 mmHg 17%
    07:00 +12°C° 0 mm 2 mps 755 mmHg 17%
    08:00 +13°C° 0 mm 2 mps 756 mmHg 16%
    09:00 +14°C° 0 mm 3 mps 756 mmHg 14%
    10:00 +17°C° 0 mm 3 mps 755 mmHg 11%
    11:00 +19°C° 0 mm 3 mps 755 mmHg 8%
    12:00 +20°C° 0 mm 3 mps 755 mmHg 7%
    13:00 +21°C° 0 mm 3 mps 754 mmHg 7%
    14:00 +22°C° 0 mm 3 mps 754 mmHg 6%
    15:00 +22°C° 0 mm 3 mps 753 mmHg 6%
    16:00 +22°C° 0 mm 3 mps 753 mmHg 6%
    17:00 +23°C° 0 mm 2 mps 753 mmHg 6%
    18:00 +21°C° 0 mm 2 mps 753 mmHg 7%
    19:00 +20°C° 0 mm 1 mps 754 mmHg 8%
    20:00 +19°C° 0 mm 1 mps 754 mmHg 8%
    21:00 +18°C° 0 mm 1 mps 754 mmHg 9%
    22:00 +16°C° 0 mm 1 mps 755 mmHg 10%
    23:00 +15°C° 0 mm 2 mps 755 mmHg 11%
    Show more